Temperature
22 23 21 21 19 18 17 17 16 16 16 16 16 16 15 15 15 15 15 15 15 15 15 15 15 15 15 15 15 15 15 15 15 16 16 16 16 16 15 14 13 14 14
22 22 21 20 19 17 17 16 16 16 16 16 16 15 15 15 15 15 15 15 15 15 15 15 15 15 15 15 15 15 15 15 15 15 15 15 15 15 15 14 14 15 15
21 22 21 20 18 17 16 16 16 16 16 15 15 15 15 15 16 16 15 15 15 15 15 15 15 15 15 15 15 15 15 14 14 13 13 13 14 15 15 14 14 14 14
20 21 21 20 18 17 16 16 16 15 15 15 15 15 15 16 16 16 15 15 15 15 15 15 15 15 15 15 15 15 14 14 13 13 13 13 14 14 14 14 14 14 14
19 19 20 20 18 17 16 15 15 15 15 15 15 15 16 16 16 16 15 15 15 15 15 15 15 15 15 15 15 15 14 13 13 13 13 13 14 14 14 14 14 14 14
18 19 20 19 18 17 16 15 15 15 15 15 15 15 16 16 16 16 15 15 15 15 15 15 15 15 15 15 15 15 14 13 13 13 13 13 14 14 14 14 14 14 13
17 19 19 19 18 17 17 16 15 15 15 15 15 16 16 17 17 17 16 15 15 15 15 15 15 15 15 15 15 15 14 14 13 13 13 14 14 14 14 14 13 13 13
18 18 19 19 18 18 17 16 16 15 15 15 15 16 16 16 17 17 16 16 16 16 15 15 15 15 15 15 15 15 15 14 13 13 13 14 14 14 14 13 13 13 13
18 18 19 19 19 18 18 17 16 15 15 15 15 16 16 16 16 16 16 16 16 16 15 15 15 15 15 15 15 15 14 14 13 13 13 13 13 13 13 13 12 12 12
17 17 18 18 18 18 18 17 16 15 15 15 15 16 16 16 16 16 16 16 16 16 16 16 15 15 15 15 15 15 14 13 13 13 13 13 13 13 12 12 12 12 12
16 16 16 17 17 17 18 17 17 15 15 15 15 16 16 16 16 16 16 16 16 16 15 15 15 15 15 15 15 15 14 13 13 13 13 12 12 12 12 11 11 11 12
16 16 16 16 16 16 16 17 17 16 15 15 16 16 16 16 15 15 16 15 15 15 15 15 15 15 15 15 15 14 14 13 13 13 13 12 12 11 11 11 11 11 11
16 16 16 16 16 16 16 16 16 16 16 16 15 16 16 15 14 14 15 15 15 15 15 15 15 15 15 15 14 14 14 13 13 13 13 12 12 12 11 11 11 11 12
16 16 16 16 16 16 16 16 15 15 15 16 15 15 15 15 14 14 14 15 15 15 15 15 15 15 14 14 14 14 14 13 12 13 13 12 12 12 11 11 11 11 12
16 16 16 16 16 16 16 15 15 15 15 15 15 15 15 15 14 14 14 14 14 14 14 14 14 14 14 14 14 13 13 13 12 12 13 12 12 12 12 11 11 11 11
17 16 16 16 16 16 16 16 15 15 15 15 15 15 15 14 14 14 14 14 14 13 13 13 13 13 13 13 13 13 13 12 12 12 12 12 12 12 12 11 11 11 11
18 17 17 17 17 16 16 16 16 16 15 15 15 15 15 14 14 14 14 14 14 13 13 13 13 13 13 13 13 13 13 12 12 12 12 12 12 12 12 11 11 11 10
18 18 17 17 17 16 16 16 16 16 16 15 15 15 15 15 14 14 14 14 14 13 13 13 13 12 13 13 13 13 13 12 12 11 12 12 12 12 12 11 11 11 10
18 18 18 17 17 17 16 16 16 16 16 16 16 15 15 15 14 14 14 14 14 13 13 13 13 13 13 13 13 12 12 12 12 11 11 11 12 12 12 11 11 11 10
18 17 17 17 17 17 16 16 16 16 16 16 16 16 16 15 15 14 14 13 13 13 13 13 13 12 12 12 12 12 12 12 12 12 11 11 11 11 12 11 11 11 10
17 16 17 17 17 16 16 16 16 16 16 16 16 16 16 16 15 15 14 13 13 13 13 13 12 12 12 11 11 11 11 11 11 11 11 11 11 11 11 12 11 11 10
15 15 15 16 16 16 16 15 15 15 15 15 15 15 15 15 15 14 14 13 13 13 13 12 12 12 12 11 11 11 10 10 10 11 11 11 11 11 11 11 11 11 10
14 14 14 14 15 15 15 15 15 15 15 15 15 15 15 15 14 14 13 13 12 12 12 12 12 12 12 11 11 11 11 11 11 11 11 11 10 10 10 10 10 10 10
12 13 13 14 14 14 14 15 15 15 14 14 14 14 14 14 14 14 13 13 12 12 12 12 12 12 11 11 11 10 11 11 11 11 10 10 10 9 10 10 9 9 9
12 12 12 13 13 13 13 14 14 14 14 14 13 13 13 13 13 13 13 13 12 12 12 12 12 11 11 11 11 11 10 10 10 11 11 10 10 9 9 9 8 8 8
11 12 12 12 12 12 12 12 12 12 13 13 13 13 13 13 13 13 13 12 12 12 11 11 11 11 11 11 10 10 10 9 10 10 10 11 10 10 8 7 7 7 6
Wind_Speed
11 16 19 16 14 14 13 13 13 13 14 15 15 15 14 13 11 10 9 8 9 13 16 17 16 16 16 16 16 15 15 14 15 16 17 16 14 13 13 14 13 12 12
15 18 19 17 15 14 13 13 13 14 15 15 15 15 13 11 10 9 8 9 12 15 17 17 16 16 15 15 15 14 13 12 12 14 16 16 14 12 12 13 13 11 11
17 19 18 17 15 14 14 14 14 14 15 15 15 14 12 10 9 9 11 13 15 17 17 16 16 15 15 14 13 12 10 7 6 4 5 13 13 12 11 10 10 9 9
17 18 17 17 15 14 15 16 15 15 15 14 14 13 11 10 10 12 14 16 17 17 16 16 15 14 14 13 12 10 6 3 3 5 6 13 13 11 10 9 9 8 9
14 17 19 17 16 15 15 16 15 15 15 14 13 12 11 11 12 13 15 16 16 16 15 14 14 13 12 11 10 7 3 4 6 5 12 16 12 10 10 9 9 9 9
13 19 18 17 16 15 15 14 14 15 15 14 13 12 11 12 12 13 13 14 14 14 14 13 12 11 10 9 8 5 3 5 7 5 13 15 11 9 9 9 10 11 13
15 18 17 17 16 14 13 13 13 14 15 14 13 12 12 12 12 11 12 12 12 12 12 12 11 10 9 8 6 4 3 6 4 9 12 14 10 8 9 10 13 15 17
16 16 16 16 15 14 12 11 12 13 15 15 13 12 12 11 11 11 11 11 11 11 11 11 10 9 8 7 6 3 4 7 6 9 11 11 8 8 10 13 16 18 19
14 13 13 14 13 12 11 10 11 14 16 15 14 13 12 11 10 10 9 10 10 10 10 10 9 9 8 7 5 2 3 6 7 7 10 11 9 11 14 17 17 18 18
10 10 11 14 14 13 11 10 11 14 16 15 15 14 13 12 10 9 8 7 8 9 10 10 9 9 8 6 4 1 4 7 4 11 13 11 12 14 16 16 16 16 16
6 7 9 10 13 15 14 12 11 13 15 16 15 15 15 13 12 10 9 9 7 9 10 9 9 8 8 6 3 1 4 5 11 14 13 14 15 15 15 15 14 14 14
5 4 4 6 8 12 13 13 12 12 14 14 14 15 13 13 15 13 13 12 9 10 10 9 9 8 8 7 4 4 6 3 10 13 13 13 12 12 12 12 12 12 12
6 4 1 2 4 6 8 11 10 11 13 14 15 17 15 13 11 13 12 11 11 11 11 10 9 9 9 8 8 7 2 3 9 13 13 12 11 10 10 10 10 11 11
9 7 4 2 1 3 6 7 8 8 10 10 13 18 14 8 7 10 11 13 12 12 11 12 10 12 9 7 7 6 4 1 7 14 13 13 11 10 9 9 9 9 10
8 9 8 6 5 3 3 3 5 6 8 11 12 15 15 8 5 7 8 12 14 14 13 11 10 9 8 8 7 4 6 6 9 15 13 13 12 10 9 9 9 9 9
9 10 10 9 8 6 5 4 3 5 8 11 11 12 14 12 8 6 6 8 10 12 13 12 9 6 6 6 5 5 5 5 8 16 16 14 12 11 10 9 9 9 8
9 10 12 12 11 9 8 6 5 6 6 6 9 14 15 13 11 9 4 4 8 12 12 10 9 7 5 5 4 5 5 6 6 14 17 16 13 12 11 11 10 9 8
4 6 9 10 11 11 10 8 6 7 7 6 7 10 15 16 14 10 5 5 10 10 8 4 5 4 5 5 5 4 4 4 6 10 16 17 16 13 12 12 11 10 9
3 3 5 7 9 9 10 7 7 8 7 8 9 9 11 14 15 11 6 7 11 7 4 5 4 5 5 5 5 5 4 4 4 6 10 15 18 18 15 13 12 11 10
3 4 4 2 5 6 5 6 6 7 7 8 8 9 11 12 13 11 6 8 10 6 6 6 6 5 5 6 4 4 4 5 4 4 6 10 15 19 19 16 14 12 11
5 4 5 5 4 2 3 4 5 7 7 7 7 11 13 13 12 9 4 6 7 9 9 8 6 7 5 5 4 1 2 3 5 5 5 6 10 15 19 19 17 16 14
5 5 5 5 5 5 3 3 3 3 5 7 7 9 14 14 13 10 8 7 7 8 10 10 8 6 5 6 5 4 3 4 5 6 6 6 7 12 13 18 19 18 17
6 6 6 6 6 6 5 4 3 2 2 3 5 7 10 13 14 13 10 8 8 9 9 11 10 10 8 7 5 5 5 7 4 5 7 7 7 7 8 13 16 17 17
5 4 5 5 5 5 5 4 4 4 5 6 6 6 8 11 12 14 12 11 11 9 10 10 11 8 8 7 6 6 4 4 5 4 4 5 7 8 8 9 12 15 16
4 3 4 5 4 3 3 4 4 5 5 5 5 7 7 8 10 11 12 11 12 10 11 11 10 10 9 8 7 5 5 2 2 4 4 5 5 6 7 7 9 12 15
4 4 5 6 5 4 4 4 4 6 6 7 7 7 6 5 6 9 10 11 11 11 11 11 11 11 11 10 9 6 5 4 5 4 3 3 4 4 4 4 6 9 13
Wind_Direction
123 131 136 136 136 135 133 130 128 126 125 122 117 111 104 96 86 75 68 72 87 93 95 93 88 85 83 83 82 81 80 83 86 86 82 75 72 71 59 48 74 68 64
126 132 133 133 135 135 133 129 124 123 123 120 115 110 104 96 86 77 74 88 99 98 95 91 88 86 84 82 81 81 83 90 96 99 96 84 73 67 61 56 61 65 63
123 131 132 131 132 133 133 130 127 125 122 117 114 110 106 99 92 87 85 95 99 97 93 91 89 86 84 83 81 80 82 88 88 98 115 99 79 66 63 59 59 59 58
125 136 133 130 130 131 133 132 129 127 121 118 116 113 110 105 101 95 89 92 94 93 93 93 91 88 85 83 82 82 78 50 10 352 76 91 76 64 61 59 56 55 55
129 131 128 131 129 130 131 132 132 129 125 122 120 117 115 112 107 99 92 94 95 96 97 96 93 90 86 84 83 82 62 357 348 1 84 88 76 65 60 59 60 61 62
122 118 129 128 128 128 131 134 136 135 131 128 125 123 121 116 109 103 100 101 102 102 100 98 95 90 87 86 86 79 27 341 327 40 76 84 72 62 63 67 69 71 74
119 123 129 127 128 130 132 134 138 141 137 134 131 129 126 121 118 116 114 113 111 108 104 99 94 90 88 88 86 69 2 341 342 69 81 84 71 64 74 78 82 83 80
117 124 128 129 129 132 136 139 142 144 143 140 137 135 132 128 127 128 126 124 121 117 111 105 98 94 91 89 85 59 359 346 10 69 84 89 80 83 88 93 88 84 81
118 127 135 136 134 136 141 146 149 148 146 145 143 141 137 134 135 136 135 134 132 127 122 115 108 102 97 94 86 52 347 342 359 56 76 86 92 98 97 94 89 85 83
121 135 146 153 153 153 152 152 154 155 151 150 149 145 142 143 146 147 149 142 140 137 132 125 119 114 109 106 98 43 326 324 31 75 78 85 100 102 98 94 91 88 84
124 144 156 160 158 161 162 159 155 158 158 154 153 154 154 162 166 170 167 143 139 143 142 137 133 131 129 126 129 242 295 303 92 87 87 94 98 98 96 95 93 89 86
151 165 162 156 153 159 155 153 166 166 164 168 166 168 182 193 181 176 164 153 152 153 153 153 154 158 164 165 170 220 267 255 114 108 107 107 104 102 102 100 98 95 92
175 179 191 122 138 142 136 158 176 176 172 192 185 179 199 212 180 152 151 157 163 166 170 169 178 199 211 178 181 215 261 29 109 118 122 120 118 117 115 112 109 105 101
172 176 190 186 165 156 155 172 178 177 173 190 201 183 195 206 181 165 165 173 181 189 190 177 201 215 206 166 198 194 151 243 113 120 127 129 130 131 129 126 122 117 111
163 169 184 192 197 199 187 193 189 188 177 190 200 193 191 193 185 189 186 181 187 189 189 184 208 196 185 188 203 184 174 195 136 132 134 136 139 143 144 142 137 130 123
176 175 180 190 198 197 201 210 215 212 192 191 192 201 204 195 189 197 195 188 194 192 184 187 205 189 177 175 182 193 194 184 149 140 142 142 147 152 155 154 149 142 135
188 183 182 189 193 194 200 205 217 226 217 208 195 198 210 210 196 197 201 191 195 196 190 187 201 189 169 164 178 193 194 189 168 144 152 151 151 157 162 164 160 154 147
215 196 190 189 190 194 198 198 205 218 224 223 219 204 207 214 210 198 194 201 194 193 193 185 190 173 164 163 179 192 184 177 180 161 157 159 160 161 165 168 167 164 158
260 252 213 194 191 196 198 196 196 203 212 221 225 226 220 216 217 208 195 197 190 190 193 195 188 173 174 180 189 181 180 174 197 178 161 164 167 166 165 165 164 165 165
324 318 313 255 204 205 206 202 200 201 204 212 220 226 228 226 223 218 203 197 187 187 198 198 190 187 180 178 177 168 189 184 193 186 182 173 167 167 167 166 165 167 171
356 347 335 329 310 247 213 215 211 208 208 209 212 220 225 229 226 225 220 205 192 195 199 197 185 192 190 154 127 152 264 231 209 197 194 178 173 173 170 173 177 179 181
8 1 344 326 316 311 285 249 232 223 216 213 210 214 220 222 223 224 223 221 208 202 201 201 192 183 184 165 149 141 206 251 254 219 199 192 183 181 178 180 183 181 183
39 15 355 344 331 321 321 324 314 295 275 242 225 218 215 216 217 218 221 222 218 211 211 208 201 188 191 194 184 165 174 208 214 228 214 198 187 183 184 184 187 182 179
62 23 349 330 316 312 314 306 291 270 257 251 245 234 221 213 213 214 215 217 221 219 216 214 210 201 181 194 220 232 212 160 164 200 232 211 195 190 186 190 188 183 179
70 28 341 324 316 317 314 297 285 282 276 278 276 264 246 224 213 211 211 214 219 220 219 216 214 206 198 191 198 207 230 253 189 155 196 210 209 205 189 182 179 177 173
53 22 348 340 343 343 330 309 285 277 286 297 295 287 279 262 231 215 210 211 215 218 219 218 218 213 209 203 200 194 185 195 208 190 174 182 199 209 185 167 166 165 166
Height
1522 1525 1527 1529 1530 1533 1536 1538 1540 1542 1543 1544 1545 1545 1546 1546 1546 1546 1546 1547 1547 1548 1549 1550 1551 1551 1551 1552 1552 1553 1554 1555 1556 1556 1556 1556 1556 1556 1556 1555 1555 1555 1555
1522 1525 1527 1529 1531 1534 1536 1539 1541 1543 1544 1545 1546 1546 1547 1547 1547 1547 1547 1548 1549 1550 1551 1552 1552 1552 1552 1552 1553 1554 1555 1556 1556 1557 1557 1557 1557 1557 1557 1557 1557 1557 1557
1521 1525 1528 1530 1532 1534 1537 1540 1542 1543 1545 1546 1546 1547 1547 1547 1547 1548 1548 1550 1551 1552 1553 1553 1554 1554 1554 1554 1554 1555 1556 1557 1558 1558 1558 1558 1558 1558 1558 1558 1559 1558 1559
1521 1525 1528 1530 1532 1535 1538 1540 1542 1544 1545 1546 1547 1547 1547 1548 1548 1549 1550 1551 1552 1553 1554 1555 1555 1555 1555 1556 1556 1557 1558 1559 1560 1560 1561 1560 1560 1560 1560 1560 1560 1560 1560
1523 1525 1528 1531 1533 1536 1538 1541 1543 1544 1546 1547 1547 1548 1548 1548 1549 1550 1551 1553 1554 1555 1556 1557 1557 1557 1558 1558 1559 1560 1560 1561 1562 1562 1562 1561 1561 1561 1560 1561 1561 1561 1561
1524 1525 1529 1531 1534 1536 1538 1541 1543 1545 1546 1547 1548 1548 1549 1549 1550 1551 1552 1554 1556 1557 1558 1558 1559 1559 1560 1560 1561 1561 1562 1563 1563 1563 1563 1562 1562 1561 1561 1561 1562 1562 1562
1524 1526 1529 1531 1534 1536 1538 1541 1543 1545 1546 1547 1548 1549 1550 1551 1551 1552 1554 1555 1557 1558 1559 1560 1560 1561 1561 1562 1562 1563 1563 1564 1564 1564 1564 1563 1563 1562 1562 1562 1563 1563 1563
1525 1527 1529 1532 1534 1536 1538 1541 1543 1545 1546 1548 1549 1550 1551 1552 1552 1553 1555 1556 1558 1559 1560 1561 1561 1562 1563 1563 1564 1564 1565 1565 1565 1565 1564 1563 1563 1562 1562 1563 1563 1564 1564
1526 1527 1530 1532 1534 1537 1539 1541 1543 1545 1546 1548 1549 1550 1551 1552 1553 1554 1556 1557 1559 1560 1561 1562 1562 1563 1564 1564 1565 1565 1566 1566 1566 1566 1565 1564 1563 1563 1563 1564 1564 1564 1564
1528 1528 1530 1533 1535 1537 1539 1541 1542 1544 1546 1548 1549 1550 1552 1553 1554 1555 1556 1558 1559 1560 1562 1562 1563 1564 1564 1565 1566 1566 1566 1567 1566 1566 1565 1565 1564 1564 1564 1564 1565 1565 1565
1528 1530 1532 1533 1535 1537 1539 1540 1542 1544 1546 1547 1548 1550 1552 1553 1555 1556 1557 1558 1559 1560 1561 1562 1563 1564 1564 1565 1566 1566 1567 1566 1566 1566 1566 1566 1565 1565 1565 1565 1565 1565 1564
1528 1531 1534 1535 1536 1537 1538 1540 1542 1543 1545 1546 1548 1550 1551 1553 1554 1555 1557 1558 1559 1560 1561 1562 1563 1563 1564 1565 1565 1566 1566 1566 1566 1565 1565 1565 1565 1565 1565 1565 1564 1564 1564
1527 1529 1532 1535 1537 1538 1538 1539 1541 1542 1544 1545 1547 1548 1551 1552 1554 1554 1555 1557 1558 1559 1560 1561 1562 1563 1563 1563 1564 1564 1565 1566 1565 1563 1564 1564 1564 1564 1564 1564 1563 1563 1563
1526 1528 1530 1532 1535 1537 1537 1539 1540 1542 1543 1544 1546 1547 1549 1551 1553 1553 1553 1555 1557 1558 1559 1560 1561 1561 1562 1562 1563 1563 1563 1564 1564 1561 1562 1563 1563 1563 1562 1562 1562 1562 1562
1526 1527 1528 1530 1532 1534 1536 1538 1540 1541 1542 1543 1545 1546 1547 1549 1550 1552 1552 1553 1554 1555 1556 1557 1559 1560 1560 1561 1561 1562 1562 1562 1562 1560 1560 1561 1561 1561 1561 1561 1561 1561 1561
1524 1526 1527 1528 1530 1532 1533 1535 1537 1540 1541 1542 1543 1544 1546 1547 1548 1549 1551 1551 1552 1553 1554 1555 1557 1558 1558 1559 1559 1560 1560 1560 1560 1558 1558 1558 1558 1558 1559 1559 1559 1559 1560
1523 1524 1525 1526 1528 1530 1531 1533 1535 1537 1539 1540 1541 1542 1543 1545 1545 1546 1548 1549 1550 1551 1552 1552 1553 1555 1555 1555 1556 1557 1557 1557 1557 1556 1555 1555 1555 1556 1556 1557 1557 1558 1558
1521 1523 1524 1525 1526 1527 1529 1530 1532 1534 1535 1537 1538 1539 1540 1541 1543 1543 1544 1545 1547 1548 1548 1549 1550 1550 1551 1551 1552 1553 1554 1554 1554 1554 1552 1551 1552 1553 1553 1554 1555 1555 1556
1519 1520 1522 1523 1524 1525 1526 1528 1529 1530 1531 1533 1534 1535 1536 1537 1538 1540 1540 1541 1542 1543 1544 1545 1545 1546 1547 1547 1548 1549 1549 1550 1551 1551 1549 1548 1548 1549 1550 1551 1552 1553 1553
1515 1517 1518 1520 1521 1523 1524 1525 1525 1526 1527 1528 1529 1530 1532 1532 1533 1535 1535 1536 1537 1538 1538 1539 1540 1541 1542 1543 1544 1545 1545 1545 1546 1546 1546 1545 1545 1545 1545 1547 1548 1549 1550
1511 1512 1514 1516 1517 1519 1520 1521 1521 1521 1522 1522 1523 1525 1526 1526 1528 1528 1530 1531 1531 1531 1532 1534 1535 1536 1537 1538 1540 1540 1540 1540 1540 1541 1541 1541 1541 1541 1541 1542 1544 1545 1546
1507 1508 1509 1511 1512 1514 1515 1516 1516 1517 1517 1517 1518 1519 1519 1520 1521 1522 1523 1524 1525 1526 1527 1528 1529 1529 1530 1531 1532 1533 1534 1535 1533 1534 1534 1535 1535 1536 1536 1537 1538 1539 1541
1504 1505 1505 1506 1507 1508 1509 1510 1511 1511 1512 1513 1513 1513 1513 1514 1514 1515 1516 1518 1519 1520 1520 1521 1522 1523 1523 1524 1524 1526 1526 1524 1526 1527 1527 1528 1529 1529 1530 1531 1532 1534 1535
1502 1502 1502 1503 1503 1504 1504 1505 1505 1506 1506 1507 1508 1508 1508 1509 1509 1509 1509 1511 1512 1513 1514 1515 1516 1516 1516 1516 1517 1518 1521 1520 1520 1519 1520 1521 1522 1523 1524 1525 1527 1528 1529
1501 1500 1500 1500 1500 1500 1500 1500 1500 1500 1501 1501 1502 1503 1503 1503 1503 1503 1503 1504 1505 1506 1507 1508 1509 1509 1509 1509 1510 1511 1513 1515 1514 1514 1514 1514 1515 1516 1517 1519 1520 1522 1523
1499 1498 1498 1498 1497 1497 1497 1496 1496 1496 1495 1496 1496 1496 1497 1498 1498 1497 1497 1497 1498 1498 1499 1500 1501 1502 1502 1502 1503 1504 1505 1507 1507 1508 1508 1508 1509 1510 1512 1513 1514 1515 1516